[[{"header":{"parameterUnit":"m.s-1","parameterCategory":1,"la1":30.2991,"la2":30.254,"lo1":-89.0895,"lo2":-89.0444,"dy":0.0017,"dx":0.0017,"nx":28,"ny":28,"refTime":"2025-05-26T03:00:00:Z","depth":0,"parameterNumber":2,"parameterNumberName":"U-component_of_WINDS"},"data":[0,0,0,0,0,0,0,0,0,0,0,0,0,0,0,0,0,0,0,0,0,0,0,0,0,0,0,0,0,0,0,0,0,0,0,0,0,0,0,0,0,0,0,0,0,0,0,0,0,0,0,0,0,0,0,0,0,0,-1.0575,-1.0575,0,-1.0525,-1.0525,-1.0524,-1.0497,-1.0497,-1.0497,-1.0497,-1.0444,-1.0443,-1.0441,0,0,0,0,0,0,0,0,0,0,0,0,0,-1.0647,-1.0645,-1.0575,-1.0574,-1.0574,-1.0525,-1.0524,-1.0524,-1.0497,-1.0497,-1.0497,-1.0497,-1.0444,-1.0443,-1.0441,0,0,0,0,0,0,0,0,0,0,0,0,0,-1.0608,-1.0645,-1.0575,-1.0555,-1.0552,-1.0525,-1.0524,-1.0524,-1.0497,-1.0497,-1.0497,-1.0497,-1.0445,-1.0443,-1.0441,-1.043,0,0,-1.0435,-1.0434,0,0,0,0,0,0,0,0,-1.061,-1.0605,-1.0558,-1.0556,-1.0553,-1.0517,-1.053,-1.0492,-1.0497,-1.0518,-1.0497,-1.0497,-1.0468,-1.0464,-1.0455,-1.0428,-1.0426,-1.0435,-1.0434,-1.0433,-1.0432,0,0,0,0,0,0,0,-1.0613,-1.0607,-1.0555,-1.0558,-1.0555,-1.0548,-1.0542,-1.0523,-1.0494,-1.0516,-1.0514,-1.0508,-1.0467,-1.0457,-1.0454,-1.0425,-1.0435,-1.0433,-1.0432,-1.0431,-1.0387,-1.0387,0,0,0,0,0,0,-1.0619,-1.061,-1.0557,-1.0554,-1.0582,-1.0546,-1.054,-1.0529,-1.0494,-1.0489,-1.0509,-1.0507,-1.0461,-1.0456,-1.0452,-1.0437,-1.0433,-1.0431,-1.043,-1.0387,-1.0387,-1.0387,0,0,0,0,0,0,-1.0621,-1.0615,-1.0559,-1.0581,-1.0574,-1.0545,-1.0533,-1.0528,-1.0518,-1.0489,-1.0483,-1.0504,-1.046,-1.0455,-1.0436,-1.0435,-1.043,-1.0428,-1.0387,-1.0387,-1.0387,-1.0408,0,0,0,0,0,0,-1.0623,-1.0615,-1.0611,-1.0581,-1.0573,-1.0544,-1.0533,-1.0527,-1.0515,-1.0513,-1.0483,-1.0478,-1.046,-1.0439,-1.0434,-1.0432,-1.0426,-1.0387,-1.0387,-1.0387,-1.0408,-1.0409,-1.041,0,0,0,0,0,-1.0626,-1.0619,-1.0611,-1.0605,-1.0567,-1.0544,-1.0539,-1.0519,-1.0515,-1.051,-1.0492,-1.0479,-1.0436,-1.0438,-1.0432,-1.0429,-1.0387,-1.0387,-1.0387,-1.0407,-1.0409,-1.041,0,0,0,0,0,0,-1.0648,-1.0614,-1.0605,-1.0589,-1.057,-1.054,-1.0533,-1.0522,-1.0503,-1.0502,-1.0477,-1.0471,-1.0455,-1.044,-1.0442,-1.0417,-1.041,-1.0409,-1.0427,-1.0429,-1.043,-1.0434,-1.0425,0,0,0,0,0,-1.0652,-1.0637,-1.0607,-1.0596,-1.0587,-1.0562,-1.0551,-1.0538,-1.0517,-1.0508,-1.0488,-1.0468,-1.045,-1.0439,-1.0421,-1.0406,-1.0399,-1.0401,-1.0402,-1.0404,-1.0403,-1.0394,-1.0395,-1.0388,-1.0388,-1.0388,0,0,-1.0658,-1.0637,-1.0629,-1.06,-1.0583,-1.0568,-1.0555,-1.0539,-1.0528,-1.0506,-1.0487,-1.0472,-1.0448,-1.0431,-1.0423,-1.0418,-1.0403,-1.0404,-1.0405,-1.0403,-1.0394,-1.0395,-1.0396,-1.0388,-1.0388,-1.0388,0,0,-1.0661,-1.0644,-1.0633,-1.0617,-1.0592,-1.0576,-1.0574,-1.0546,-1.0535,-1.0516,-1.0499,-1.0485,-1.0455,-1.0438,-1.0426,-1.0425,-1.0412,-1.042,-1.0427,-1.0419,-1.0419,-1.042,-1.0419,-1.0419,-1.0419,-1.0419,-1.0419,0,-1.0672,-1.0648,-1.0628,-1.0614,-1.0601,-1.0581,-1.0569,-1.0555,-1.0526,-1.0518,-1.0513,-1.0475,-1.0458,-1.0437,-1.0437,-1.0428,-1.0424,-1.0423,-1.0421,-1.0421,-1.0421,-1.042,-1.042,-1.042,-1.042,-1.042,-1.042,0,-1.0663,-1.0647,-1.0641,-1.0614,-1.0601,-1.0588,-1.0565,-1.0554,-1.0542,-1.0526,-1.0508,-1.0486,-1.0464,-1.0458,-1.0445,-1.0436,-1.0434,-1.0426,-1.0418,-1.0423,-1.0422,-1.0422,-1.0422,-1.0421,-1.0421,-1.0421,0,0,-1.0678,-1.0641,-1.0639,-1.0627,-1.0599,-1.0586,-1.0573,-1.0551,-1.0542,-1.0523,-1.0511,-1.0486,-1.0479,-1.0465,-1.0451,-1.0444,-1.0444,-1.0436,-1.0435,-1.0438,-1.0433,-1.0439,-1.0439,-1.0436,-1.0436,-1.0436,-1.0435,0,-1.0678,-1.0652,-1.0634,-1.0616,-1.0601,-1.0582,-1.057,-1.0552,-1.0537,-1.0522,-1.0506,-1.0489,-1.048,-1.0472,-1.0464,-1.0446,-1.0443,-1.0446,-1.0424,-1.0424,-1.0431,-1.0438,-1.0444,-1.0444,-1.0434,-1.0434,-1.0434,0,-1.0673,-1.0656,-1.0636,-1.0611,-1.0604,-1.0593,-1.0572,-1.0559,-1.0538,-1.0527,-1.0513,-1.0498,-1.0483,-1.0477,-1.0456,-1.0458,-1.0449,-1.0438,-1.0438,-1.0435,-1.0429,-1.0435,-1.0443,-1.0443,-1.0433,-1.0433,-1.0433,0,-1.0687,-1.0658,-1.0643,-1.0633,-1.0603,-1.0596,-1.0583,-1.0562,-1.055,-1.0532,-1.0524,-1.0504,-1.0494,-1.0478,-1.0459,-1.0457,-1.044,-1.0432,-1.0431,-1.0431,-1.0427,-1.0428,-1.0434,-1.0422,-1.0422,-1.0422,-1.0422,0,-1.0688,-1.0677,-1.0648,-1.0639,-1.0626,-1.0605,-1.0593,-1.0578,-1.056,-1.0547,-1.053,-1.0518,-1.0493,-1.0479,-1.0463,-1.0448,-1.0443,-1.0434,-1.043,-1.0436,-1.0437,-1.0429,-1.0428,-1.0422,-1.0422,-1.0422,-1.0422,0,-1.0701,-1.0681,-1.0663,-1.0636,-1.0629,-1.0621,-1.0598,-1.0588,-1.0573,-1.0557,-1.0552,-1.0528,-1.051,-1.0489,-1.0464,-1.0454,-1.044,-1.0434,-1.0447,-1.0445,-1.0444,-1.0444,-1.0445,-1.0444,-1.0433,-1.0433,-1.0433,0,-1.0702,-1.0693,-1.0666,-1.0656,-1.0644,-1.0629,-1.0617,-1.0597,-1.0585,-1.0561,-1.0554,-1.0535,-1.0519,-1.0491,-1.0471,-1.0452,-1.0446,-1.0447,-1.0443,-1.0449,-1.0446,-1.0446,-1.0445,-1.0448,-1.0449,-1.0449,-1.0449,0,-1.0708,-1.0699,-1.0683,-1.0664,-1.0651,-1.0635,-1.0618,-1.0611,-1.0587,-1.0575,-1.0557,-1.0545,-1.052,-1.0501,-1.048,-1.0466,-1.0454,-1.0451,-1.0449,-1.0455,-1.0462,-1.0458,-1.045,-1.0451,-1.0451,-1.045,-1.045,-1.045,-1.0715,-1.0706,-1.0686,-1.0669,-1.0654,-1.0639,-1.0629,-1.0613,-1.0597,-1.0576,-1.0564,-1.0546,-1.0526,-1.0496,-1.0483,-1.0469,-1.0465,-1.0462,-1.0462,-1.0462,-1.0463,-1.0465,-1.0465,-1.0465,-1.0465,-1.0465,-1.0465,0,-1.0719,-1.0706,-1.069,-1.0668,-1.0655,-1.0645,-1.0626,-1.0615,-1.06,-1.0582,-1.0567,-1.0546,-1.0528,-1.0507,-1.0488,-1.048,-1.0474,-1.0476,-1.0476,-1.0473,-1.0468,-1.0471,-1.0481,-1.0481,-1.0481,-1.0481,-1.0481,-1.0481,-1.072,-1.0705,-1.0694,-1.0672,-1.0658,-1.064,-1.0631,-1.0617,-1.0602,-1.058,-1.0566,-1.0552,-1.0533,-1.0513,-1.0496,-1.049,-1.0484,-1.0487,-1.048,-1.0475,-1.0474,-1.0472,-1.0475,-1.0486,-1.0486,-1.0486,-1.0486,-1.0486]},{"header":{"parameterUnit":"m.s-1","parameterCategory":1,"la1":30.2991,"la2":30.254,"lo1":-89.0895,"lo2":-89.0444,"dy":0.0017,"dx":0.0017,"nx":28,"ny":28,"refTime":"2025-05-26T03:00:00:Z","depth":0,"parameterNumber":3,"parameterNumberName":"V-component_of_WINDS"},"data":[0,0,0,0,0,0,0,0,0,0,0,0,0,0,0,0,0,0,0,0,0,0,0,0,0,0,0,0,0,0,0,0,0,0,0,0,0,0,0,0,0,0,0,0,0,0,0,0,0,0,0,0,0,0,0,0,0,0,3.911,3.9111,0,3.917,3.9171,3.9171,3.9138,3.9136,3.9135,3.9133,3.9191,3.9194,3.9197,0,0,0,0,0,0,0,0,0,0,0,0,0,3.8963,3.8966,3.911,3.9111,3.9112,3.917,3.9171,3.9172,3.9138,3.9136,3.9134,3.9132,3.919,3.9194,3.9198,0,0,0,0,0,0,0,0,0,0,0,0,0,3.9025,3.8967,3.911,3.9102,3.9102,3.917,3.9171,3.9172,3.9139,3.9136,3.9134,3.9131,3.9189,3.9194,3.9198,3.9276,0,0,3.9212,3.9214,0,0,0,0,0,0,0,0,3.9022,3.9031,3.9102,3.9103,3.9103,3.9144,3.914,3.9207,3.9139,3.9125,3.9133,3.913,3.9177,3.9183,3.9199,3.9279,3.9282,3.9213,3.9216,3.9218,3.9219,0,0,0,0,0,0,0,3.9017,3.9028,3.9134,3.9103,3.9104,3.9094,3.91,3.9153,3.9164,3.9126,3.9123,3.9131,3.9177,3.9195,3.9201,3.9282,3.9213,3.9217,3.922,3.9221,3.9428,3.9431,0,0,0,0,0,0,3.9014,3.9024,3.9132,3.9135,3.9055,3.9099,3.9106,3.9133,3.9163,3.9166,3.9133,3.9129,3.9188,3.9195,3.9202,3.9295,3.9218,3.9222,3.9225,3.9425,3.9429,3.9431,0,0,0,0,0,0,3.9011,3.9024,3.9129,3.9079,3.9092,3.9104,3.9135,3.9136,3.9154,3.9169,3.9171,3.915,3.9187,3.9196,3.9258,3.9297,3.9224,3.9228,3.9422,3.9426,3.943,3.9482,0,0,0,0,0,0,3.9007,3.9023,3.9054,3.908,3.9095,3.9185,3.9138,3.9139,3.9162,3.9158,3.9185,3.9187,3.9185,3.9251,3.9263,3.9302,3.9232,3.9419,3.9424,3.9429,3.9477,3.9488,3.9497,0,0,0,0,0,3.9002,3.9066,3.9056,3.9069,3.9134,3.9188,3.9196,3.9193,3.9166,3.9196,3.9206,3.9186,3.9291,3.9258,3.9271,3.9312,3.9416,3.9422,3.9428,3.9473,3.9486,3.9496,0,0,0,0,0,0,3.9042,3.9069,3.9058,3.9133,3.9158,3.9182,3.922,3.9207,3.924,3.9235,3.9229,3.9236,3.93,3.9312,3.9275,3.9388,3.9349,3.9358,3.9379,3.9391,3.94,3.9396,3.9236,0,0,0,0,0,3.906,3.9103,3.9123,3.9187,3.9201,3.9208,3.9232,3.9228,3.9253,3.9264,3.9278,3.9303,3.9341,3.9367,3.9403,3.9479,3.9484,3.9513,3.9523,3.9531,3.9538,3.9578,3.9592,3.9451,3.9451,3.9451,0,0,3.9097,3.9117,3.9144,3.9196,3.9215,3.9258,3.9218,3.9265,3.9297,3.9271,3.9331,3.9342,3.9369,3.9438,3.947,3.945,3.9578,3.9538,3.9545,3.9548,3.9586,3.9599,3.9611,3.9456,3.9455,3.9454,0,0,3.9186,3.9206,3.9261,3.9281,3.9312,3.9316,3.9329,3.9355,3.9362,3.9422,3.9403,3.944,3.9507,3.9527,3.9546,3.9642,3.9625,3.9654,3.9704,3.9744,3.9755,3.9764,3.9798,3.9811,3.9661,3.9661,3.9661,0,3.9228,3.9294,3.9291,3.934,3.9363,3.9342,3.9397,3.9416,3.9456,3.9472,3.945,3.9533,3.9549,3.9623,3.9646,3.9663,3.9677,3.9651,3.9754,3.9763,3.9772,3.9804,3.9817,3.9665,3.9664,3.9664,3.9664,0,3.9343,3.9389,3.943,3.947,3.9497,3.9549,3.9553,3.958,3.9574,3.958,3.9641,3.9661,3.97,3.9717,3.9711,3.979,3.9777,3.9754,3.9714,3.9789,3.9819,3.9831,3.9669,3.9668,3.9667,3.9666,0,0,3.946,3.9498,3.9513,3.9531,3.9562,3.9597,3.9647,3.9687,3.971,3.9738,3.9779,3.9836,3.9815,3.9837,3.9832,3.9867,3.9941,3.984,3.984,3.9858,4.0028,4.0045,4.0059,3.993,3.9933,3.9934,4.0026,0,3.9552,3.9641,3.9639,3.9721,3.9763,3.9743,3.9787,3.981,3.9817,3.9853,3.986,3.99,3.987,3.9883,3.9916,3.9925,3.9975,3.9918,3.9968,3.9969,3.9962,4.0075,4.0093,4.0178,4.0038,4.004,4.0041,0,3.967,3.9703,3.979,3.9815,3.9832,3.9871,3.9907,3.9941,3.9967,3.9969,3.9993,3.9983,4.0033,3.9992,4.006,4.0021,4.0041,4.0048,4.0051,4.0056,4.001,4.0082,4.0206,4.0218,4.006,4.0058,4.0057,0,3.9747,3.9812,3.9873,3.9888,3.9919,3.9947,3.996,3.9984,4.0007,4.0038,4.0053,4.0089,4.0108,4.0136,4.0135,4.0105,4.0204,4.0162,4.0206,4.0206,4.0228,4.0227,4.0356,4.0241,4.0241,4.0241,4.024,0,3.9849,3.9902,3.9907,3.9944,4.0003,4.0,4.0059,4.0069,4.009,4.0128,4.0112,4.0148,4.0145,4.0181,4.018,4.0236,4.0245,4.0248,4.0247,4.0249,4.0249,4.0262,4.0256,4.0244,4.0243,4.0243,4.0242,0,3.9944,3.995,4.0014,4.0038,4.0045,4.0087,4.0107,4.0141,4.0147,4.0195,4.0206,4.0215,4.0256,4.0258,4.0305,4.0304,4.0372,4.0365,4.0364,4.0363,4.0406,4.0402,4.0549,4.0568,4.0441,4.0442,4.0443,0,4.0009,4.005,4.0078,4.0103,4.0119,4.0159,4.0183,4.0181,4.0206,4.0238,4.0268,4.0308,4.034,4.0406,4.0416,4.0452,4.0445,4.0494,4.045,4.0451,4.0445,4.0443,4.0447,4.0502,4.0504,4.0505,4.0506,0,4.0123,4.0124,4.016,4.0197,4.0227,4.0256,4.0282,4.0303,4.0304,4.0333,4.0376,4.04,4.0448,4.0488,4.0522,4.0535,4.0521,4.0519,4.0531,4.0534,4.0532,4.0533,4.0387,4.0516,4.0515,4.0514,4.0514,4.0513,4.0205,4.0241,4.0266,4.0306,4.0326,4.0352,4.0385,4.0395,4.0431,4.0471,4.0467,4.0514,4.0537,4.0582,4.0597,4.0633,4.0616,4.0634,4.0638,4.0642,4.0647,4.0526,4.0639,4.0639,4.0639,4.0638,4.0638,0,4.0319,4.0334,4.0371,4.041,4.0441,4.0425,4.0454,4.0481,4.0523,4.0546,4.0578,4.0626,4.0664,4.0676,4.0713,4.0739,4.0733,4.0748,4.0746,4.0749,4.066,4.0646,4.0753,4.0753,4.0752,4.0752,4.0752,4.0752,4.0382,4.0441,4.0444,4.0512,4.0526,4.0573,4.059,4.0613,4.0632,4.0686,4.0718,4.0726,4.0745,4.0783,4.0816,4.0819,4.0833,4.0851,4.0851,4.0767,4.0756,4.0745,4.0732,4.0854,4.0855,4.0937,4.0938,4.0939]}]]